#timestamp,LO_Frequency,Hit,StdDev 
1692003615.3,286046990.3,N
1692003635.1,286046990.4,N
1692003655.9,286046990.2,N
1692003675.7,286046991.7,N
1692003695.5,286046989.8,N
1692003715.4,286046988.4,N
1692003735.2,286046987.6,Y
1692003755.1,286047004.4,P
1692003756.0,286047004.4,N
1692003775.8,286046996.0,N
1692003795.6,286047002.0,N
1692003815.5,286046994.9,N
1692003835.3,286046993.4,N
1692003855.1,286047003.2,N
1692003875.9,286047000.3,N
1692003895.7,286046991.2,N
1692003915.6,286046988.5,N
1692003935.4,286046993.2,N
1692003955.2,286046998.8,N
1692003975.1,286046995.6,N
1692003976.0,286046995.6,N
1692003995.8,286046993.5,N
1692004015.6,286046996.8,N
1692004035.5,286046997.5,N
1692004055.3,286047003.6,N
1692004075.2,286046999.2,N
1692004095.9,286047001.2,N
1692004115.8,286046997.4,N
1692004135.6,286046997.7,N
1692004155.4,286046998.7,N
1692004175.3,286046995.3,N
1692004195.1,286046995.6,N
1692004215.8,286046995.2,N
1692004235.7,286046999.9,N
1692004255.5,286046999.5,N
1692004275.4,286046995.4,N
1692004295.2,286046995.7,N
1692004315.0,286046993.1,N
1692004315.9,286046993.1,N
1692004335.8,286046992.9,N
1692004355.6,286046992.2,N
1692004375.4,286046990.8,N
1692004395.3,286046991.5,N
1692004415.1,286046988.7,Y
1692004435.9,286046992.0,P
1692004455.7,286046991.8,P
1692004475.6,286046990.6,P
1692004495.4,286046992.2,Y
1692004515.2,286046997.1,P
1692004535.1,286046996.7,N
1692004536.0,286046996.7,N
1692004555.8,286046995.7,N
1692004575.6,286046995.3,N
1692004595.5,286046994.9,Y
1692004615.3,286047002.4,P
1692004635.2,286047002.1,N
1692004655.9,286047002.7,N
1692004675.7,286047001.6,N
1692004695.6,286047002.1,N
1692004715.4,286047006.0,N
1692004735.2,286047005.7,N
1692004755.1,286047003.9,N
1692004756.0,286047003.9,N
1692004775.8,286047002.1,N
1692004795.7,286047004.3,N
1692004815.5,286047004.4,N
1692004835.3,286047003.7,N
1692004855.2,286047006.1,N
1692004875.0,286047005.3,N
1692004875.9,286047005.3,N
1692004895.8,286047001.7,N
1692004915.6,286047011.9,Y
1692004935.4,286047000.5,P
1692004955.3,286046998.9,N
1692004975.1,286047005.5,P
1692004995.9,286047003.2,N
1692005015.7,286047001.3,N
1692005035.5,286047001.4,N
1692005055.4,286047001.8,N
1692005075.2,286047001.7,N
1692005095.0,286047001.5,N
1692005095.9,286047001.5,N
1692005115.8,286047003.9,N
1692005135.6,286047005.9,Y
1692005155.5,286047004.9,P
1692005175.3,286047001.5,N
1692005195.1,286047001.4,N
1692005215.9,286047002.6,N
1692005235.7,286047002.5,N
1692005255.5,286047001.6,N
1692005275.4,286047003.4,N
1692005295.2,286047002.5,N
1692005315.1,286047004.2,Y
1692005316.0,286047004.2,P
1692005335.8,286047000.0,N
1692005355.6,286047000.7,N
1692005375.5,286047002.8,N
1692005395.3,286047001.1,N
1692005415.1,286046998.4,N
1692005435.9,286046998.6,N
1692005455.7,286046998.9,N
1692005475.6,286047001.8,N
1692005495.4,286047002.4,N
1692005515.2,286047002.2,N
1692005535.1,286047004.0,N
1692005536.0,286047004.0,N
1692005555.8,286047005.5,N
1692005575.6,286047003.8,N
1692005595.5,286047005.9,N
1692005615.3,286047005.4,N
1692005635.1,286047006.2,N
1692005655.9,286047007.5,Y
1692005675.7,286047001.6,P
1692005695.6,286047004.2,P
1692005715.4,286047004.7,P
1692005735.2,286047006.0,Y
1692005755.1,286046998.6,P
1692005756.0,286046998.6,N
1692005775.8,286046998.1,N
1692005795.7,286046996.5,N
1692005815.5,286046999.4,N
1692005835.3,286046999.2,N
1692005855.2,286046998.4,N
1692005875.9,286047000.8,N
1692005895.7,286047002.5,N
1692005915.6,286047000.6,N
1692005935.4,286046999.4,N
1692005955.3,286046999.2,N
1692005975.1,286046998.6,N
1692005976.0,286046998.6,N
1692005995.8,286046998.7,N
1692006015.7,286047002.2,N
1692006035.5,286047000.2,N
1692006055.4,286046998.4,N
1692006075.2,286046997.9,N
1692006095.0,286047002.4,N
1692006095.9,286047002.4,N
1692006115.8,286047000.1,N
1692006135.6,286047002.7,N
1692006155.5,286047002.7,N
1692006175.3,286046999.7,N
1692006195.1,286046999.9,N
1692006215.9,286046998.2,N
1692006235.7,286046997.2,N
1692006255.5,286046997.5,N
1692006275.4,286046997.8,N
1692006295.2,286046994.9,N
1692006315.1,286046995.4,N
1692006316.0,286046995.4,N
1692006335.8,286046995.7,N
1692006355.6,286046998.0,N
1692006375.5,286046993.3,Y
1692006395.3,286046995.6,P
1692006415.1,286046995.2,N
1692006435.9,286046999.1,N
1692006455.7,286046995.5,N
1692006475.6,286046993.7,Y
1692006495.4,286046995.2,P
1692006515.2,286046993.1,P
1692006535.1,286046990.5,P
1692006536.0,286046990.5,Y
1692006555.8,286046995.5,P
1692006575.7,286046997.9,N
1692006595.5,286046997.8,N
1692006615.3,286046999.2,N
1692006635.2,286046997.2,N
1692006655.9,286046995.8,N
1692006675.7,286046993.7,Y
1692006695.6,286046995.3,P
1692006715.5,286047001.2,N
1692006735.3,286047002.2,N
1692006755.1,286047000.3,N
1692006775.9,286047000.5,N
1692006795.7,286047004.5,N
1692006815.6,286046998.2,N
1692006835.4,286046996.9,N
1692006855.2,286047005.9,N
1692006875.1,286047005.3,N
1692006876.0,286047005.3,N
1692006895.8,286047002.1,N
1692006915.6,286046998.1,N
1692006935.5,286046999.3,N
1692006955.3,286046999.5,N
1692006975.1,286047005.5,N
1692006995.9,286047006.5,N
1692007015.7,286047017.0,Y
1692007035.6,286047012.5,P
1692007055.4,286047010.5,N
1692007075.2,286047008.1,N
1692007095.1,286047010.1,N
1692007096.0,286047010.1,N
1692007115.8,286047007.4,N
1692007135.6,286047006.0,N
1692007155.5,286047007.0,N
1692007175.3,286047007.6,N
1692007195.2,286047005.2,N
